This is the latest recevied weather packets stored in our database for station/object AC0MR. If no packets are shown the sender has not sent any weather packets the latest 10 day(s).
| Time | Temp. | Humidity | Pressure | Rain* | Wind** | Luminosity | Snow |
|---|---|---|---|---|---|---|---|
| 1777382719 | 8.33° C | 78% | 1013.7 hPa | 0 mm | - | 166 W/m² | - |
| 1777382119 | 7.78° C | 79% | 1013.4 hPa | 0 mm | - | 167 W/m² | - |
| 1777381519 | 7.78° C | 79% | 1013.4 hPa | 0 mm | - | 116 W/m² | - |
| 1777380919 | 7.78° C | 79% | 1013.2 hPa | 0 mm | - | 96 W/m² | - |
| 1777380319 | 7.78° C | 80% | 1013.4 hPa | 0 mm | - | 83 W/m² | - |
| 1777379719 | 7.78° C | 80% | 1013.2 hPa | 0 mm | - | 65 W/m² | - |
| 1777379119 | 7.78° C | 81% | 1013 hPa | 0 mm | - | 65 W/m² | - |
| 1777378519 | 7.22° C | 81% | 1012.8 hPa | 0 mm | - | 48 W/m² | - |
| 1777377919 | 7.22° C | 82% | 1012.3 hPa | 0 mm | - | 31 W/m² | - |
| 1777377319 | 7.22° C | 82% | 1012.3 hPa | 0 mm | - | 24 W/m² | - |
| 1777376719 | 7.22° C | 82% | 1011.9 hPa | 0 mm | - | 18 W/m² | - |
| 1777376119 | 7.22° C | 82% | 1011.8 hPa | 0 mm | - | 9 W/m² | - |
| 1777375518 | 7.22° C | 82% | 1011.8 hPa | 0 mm | - | 5 W/m² | - |
| 1777374919 | 7.22° C | 82% | 1011.5 hPa | 0 mm | - | 0 W/m² | - |
| 1777374319 | 7.22° C | 82% | 1011.3 hPa | 0 mm | - | 0 W/m² | - |
| 1777373718 | 7.78° C | 82% | 1011.3 hPa | 0 mm | - | 0 W/m² | - |
| 1777373118 | 7.78° C | 82% | 1011.2 hPa | 0 mm | - | 0 W/m² | - |
| 1777372518 | 7.78° C | 82% | 1011.4 hPa | 0 mm | - | 0 W/m² | - |
| 1777371919 | 7.78° C | 83% | 1011.3 hPa | 0 mm | - | 0 W/m² | - |
| 1777371319 | 7.78° C | 83% | 1011.1 hPa | 0 mm | - | 0 W/m² | - |
| 1777370718 | 7.78° C | 83% | 1011 hPa | 0 mm | - | 0 W/m² | - |
| 1777370118 | 7.78° C | 83% | 1010.9 hPa | 0 mm | - | 0 W/m² | - |
| 1777369518 | 7.78° C | 82% | 1010.6 hPa | 0 mm | - | 0 W/m² | - |
| 1777368918 | 7.78° C | 82% | 1010.2 hPa | 0 mm | - | 0 W/m² | - |
| 1777368318 | 8.33° C | 83% | 1010.2 hPa | 0 mm | - | 0 W/m² | - |
* Rain latest hour (hover to see other rain measurements)
** Current wind speed in m/s (hover to see current wind gust speed)